Location: Ladrillo (historical)
(32.8195°N, 117.2231°W)
Time: 03:46:16
(UTC+00:00)

Meteor 2-10 Rocket - Pass Details

Date: 29 October 2020
Orbit: 733 x 885 km, 81.2° (Epoch: 26 November)

Event Time Altitude Azimuth Distance (km) Brightness Sun altitude
Rises 13:12:25 0° 353° (N) 3,171 6.5 -11.6°
Reaches altitude 10° 13:14:44 10° 355° (N) 2,253 5.8 -11.1°
Maximum altitude 13:19:46 77° 82° (E) 775 3.7 -10.0°
Drops below altitude 10° 13:24:56 10° 168° (SSE) 2,306 6.3 -9.0°
Sets 13:27:19 0° 170° (S) 3,251 7.0 -8.5°
